Location: *
(50.5556°N, 11.7181°E)
Time: 03:35:44
(UTC+00:00)

Daily predictions for brighter satellites

Satellite Brightness Start Highest point End
(mag) Time Altitude Azimuth Time Altitude Azimuth Time Altitude Azimuth
SL-16 R/B 3.4 00:11:06 46° NNE 00:11:06 46° NNE 00:15:53 10° N
Cosmos 2278 Rocket 3.6 00:22:37 35° NNE 00:22:37 35° NNE 00:25:56 10° NNE
Lacrosse 5 4.3 00:27:44 17° ENE 00:27:44 17° ENE 00:28:58 10° ENE
USA 267 3.7 00:17:45 10° ENE 00:23:21 58° NNE 00:23:21 58° NNE
CENTAUR R/B 4.5 00:25:55 18° E 00:25:55 18° E 00:29:33 10° ENE
CZ-2D R/B 3.8 00:22:24 10° NNE 00:25:23 28° ENE 00:25:23 28° ENE
Cosmos 1943 Rocket 4.2 00:31:07 19° E 00:31:07 19° E 00:33:57 10° NE
ATLAS 5 CENTAUR R/B 3.7 00:41:47 27° NNE 00:41:47 27° NNE 00:44:26 10° NE
USA 238 DEB 4.0 00:55:06 58° E 00:55:06 58° E 01:01:01 10° NE
USA 238 4.0 00:55:12 58° E 00:55:12 58° E 01:01:08 10° NE
ADEOS II 3.7 00:58:02 10° NE 01:02:26 26° E 01:02:32 26° E
ATLAS CENTAUR R/B 4.4 01:11:09 10° NNW 01:13:56 15° N 01:16:38 10° NE
MOS 1-B Rocket 4.1 01:09:29 10° NNE 01:15:16 72° NNE 01:15:16 72° NNE
CZ-4B R/B 4.5 01:22:49 15° NNE 01:22:49 15° NNE 01:23:38 10° N
Cosmos 2279 Rocket 4.2 01:14:57 10° NNW 01:20:01 60° NNW 01:20:01 60° NNW
Resurs 1-4 Rocket 2.8 01:16:15 10° NNE 01:20:11 51° N 01:20:11 51° N
ARIANE 5 R/B 3.5 01:21:28 10° NNE 01:26:12 39° E 01:26:12 39° E
Cosmos 2297 4.2 01:33:02 50° NNW 01:33:02 50° NNW 01:37:49 10° NNE
ATLAS 3B R/B 3.0 01:35:37 50° SE 01:36:13 52° ESE 01:42:35 10° NE
NOSS 3-2 (A) 3.3 01:36:40 87° ENE 01:36:40 87° ENE 01:43:19 10° NE
Cosmos 2369 Rocket 2.5 01:38:09 59° ESE 01:38:09 59° ESE 01:43:41 10° NE
NOSS 3-2 (C) 3.4 01:41:45 69° SE 01:41:55 70° SE 01:48:36 10° NE
Meteor 1-14 Rocket 4.2 01:37:51 10° N 01:43:23 77° ENE 01:43:23 77° ENE
Meteor 1-26 Rocket 4.2 01:43:49 70° ESE 01:43:51 70° E 01:49:26 10° NNE
Cosmos 1833 4.2 01:43:40 10° NNW 01:49:20 77° ENE 01:51:06 45° SE
Cosmos 44 4.3 01:52:07 38° ESE 01:52:07 38° ESE 01:56:28 10° NE
SL-16 R/B 3.8 01:56:12 25° NW 01:56:12 25° NW 01:59:19 10° NNW
Nadezhda 4 Rocket 3.9 01:56:23 59° SSE 01:57:36 78° E 02:03:44 10° NNE
deb Chang Zheng 4 4.2 01:53:28 10° NNE 01:56:55 54° NNE 01:56:55 54° NNE
SME Rocket 3.8 01:52:19 10° NNE 01:59:17 67° WNW 01:59:19 67° WNW
CBERS-1 4.4 01:54:24 10° N 01:58:44 54° NW 01:58:44 54° NW
Cosmos 841 Rocket 4.3 02:00:36 40° NW 02:00:36 40° NW 02:04:55 10° NNE
CZ-2D R/B 4.2 01:58:43 10° NNE 02:02:11 47° ENE 02:02:11 47° ENE
Meteor 1-28 Rocket 4.3 02:04:58 44° ENE 02:04:58 44° ENE 02:08:22 10° N
Cosmos 2278 Rocket 4.0 02:04:28 18° NW 02:05:31 18° NNW 02:09:25 10° N
USA 267 3.9 02:00:29 10° ENE 02:06:46 51° N 02:10:41 23° WNW
CZ-2D R/B 2.9 02:02:28 10° N 02:06:42 38° NW 02:06:42 38° NW
Lacrosse 5 1.9 02:07:00 63° NNW 02:07:43 75° NNE 02:12:46 10° ESE
Unknown 4.3 02:13:11 50° E 02:13:11 50° E 02:16:28 10° ENE
Cosmos 1943 Rocket 2.0 02:12:39 71° W 02:13:03 74° WNW 02:18:39 10° NNE
Unknown 4.2 02:14:48 52° E 02:14:48 52° E 02:18:08 10° ENE
IRS-1C 4.0 02:09:20 10° N 02:14:37 66° WNW 02:14:49 65° W
CENTAUR R/B 2.6 02:13:07 55° SSW 02:14:38 79° SE 02:21:51 10° NE
NPP 4.4 02:10:12 10° N 02:14:47 37° NW 02:14:47 37° NW
Unknown 4.1 02:16:21 54° ESE 02:16:21 54° ESE 02:19:46 10° ENE
Unknown 4.1 02:17:58 56° ESE 02:17:58 56° ESE 02:21:27 10° ENE
Unknown 4.0 02:19:35 59° ESE 02:19:35 59° ESE 02:23:08 10° ENE
ATLAS 5 CENTAUR R/B 2.7 02:20:17 38° NNE 02:20:17 38° NNE 02:23:26 10° NE
Unknown 3.9 02:22:47 64° ESE 02:22:47 64° ESE 02:26:29 10° ENE
Starlink (trailer) 3.8 02:24:22 66° ESE 02:24:22 66° ESE 02:28:08 10° ENE
IDEFIX/ARIANE 42P 4.2 02:19:17 10° NNE 02:24:00 32° E 02:28:40 10° SSE
ATLAS 5 CENTAUR R/B 3.8 02:23:19 16° NW 02:25:30 21° N 02:29:36 10° NE
Unknown 3.7 02:25:59 69° ESE 02:25:59 69° ESE 02:29:48 10° ENE
Gbstr 26 Del rocket 4.4 02:21:47 29° WNW 02:26:29 81° SSW 02:34:23 10° ESE
Unknown 3.7 02:27:34 72° ESE 02:27:34 72° ESE 02:31:27 10° ENE
Spot 4 Rocket 3.9 02:25:32 10° NNE 02:30:42 77° WNW 02:31:44 57° SW
Unknown 3.5 02:33:59 81° SSE 02:33:59 81° SSE 02:38:08 10° ENE
Unknown 3.5 02:35:35 81° S 02:35:39 82° SSE 02:39:49 10° ENE
Unknown 3.5 02:35:54 82° S 02:35:58 83° SSE 02:40:09 10° ENE
Cosmos 2026 Rocket 4.2 02:31:17 18° S 02:36:08 72° E 02:42:31 10° NNE
Meteor 1-11 Rocket 3.9 02:30:45 10° N 02:36:23 71° ENE 02:41:53 10° SSE
Cosmos 2344 3.7 02:34:41 38° WSW 02:37:55 70° NW 02:46:40 10° NE
Unknown 3.4 02:38:45 80° SW 02:38:56 84° SSE 02:43:06 10° ENE
Cosmos 220 Rocket 3.9 02:38:58 64° WNW 02:39:03 64° WNW 02:43:18 10° NNE
IRS-1D 4.3 02:34:34 10° N 02:39:25 35° WNW 02:39:46 35° WNW
Unknown 3.4 02:40:27 78° WSW 02:40:43 87° SSE 02:44:53 10° ENE
BREEZE-M DEB (TANK) 3.9 02:41:07 32° S 02:41:07 32° S 02:48:17 10° SE
Unknown 3.4 02:41:13 76° SW 02:41:31 86° SSE 02:45:41 10° ENE
ADEOS II 2.3 02:37:19 10° N 02:42:27 53° WNW 02:43:28 46° WSW
SeaSat 1 4.4 02:39:00 10° NE 02:43:08 26° ESE 02:47:12 10° SSE
Unknown 3.4 02:43:37 73° WSW 02:44:00 89° SSE 02:48:11 10° ENE
USA 238 DEB 4.3 02:42:33 30° W 02:45:27 46° NNW 02:52:13 10° NE
USA 238 4.3 02:42:38 30° W 02:45:33 46° NNW 02:52:19 10° NE
Unknown 3.4 02:45:09 70° WSW 02:45:37 89° SE 02:49:46 10° ENE
Cosmos 1340 3.3 02:41:56 10° N 02:45:41 56° ENE 02:49:24 10° SSE
Unknown 3.4 02:45:36 69° WSW 02:46:03 89° SSW 02:50:14 10° ENE
Cosmos 1315 Rocket 3.9 02:44:33 16° SSE 02:47:32 45° E 02:51:30 10° NNE
Unknown 3.5 02:48:15 65° WSW 02:48:49 90° W 02:53:00 10° ENE
Timation 2 Rocket 3.8 02:43:33 10° NW 02:49:31 62° WSW 02:55:23 10° SSE
Cosmos 1782 3.7 02:50:27 34° NW 02:50:27 34° NW 02:53:29 10° N
Unknown 3.5 02:51:30 60° WSW 02:52:13 86° NNW 02:56:23 10° ENE
Cosmos 1908 Rocket 4.2 02:48:30 10° N 02:52:48 57° ENE 02:57:05 10° SSE
Unknown 3.5 02:53:07 58° WSW 02:53:54 85° NNW 02:58:04 10° ENE
ATLAS CENTAUR R/B 3.5 02:50:17 10° NNW 02:54:22 29° NNE 02:58:10 10° E
Cosmos 2263 4.3 02:53:01 39° WSW 02:54:54 58° NW 03:00:28 10° NNE
Cosmos 1707 Rocket 3.8 02:54:54 45° W 02:55:13 46° WNW 02:59:28 10° N
Unknown 3.5 02:54:41 55° W 02:55:32 84° NNW 02:59:42 10° ENE
Unknown 3.5 02:54:57 54° W 02:55:45 76° NNW 02:59:49 10° ENE
PSLV R/B 4.3 02:51:29 10° NNE 02:55:48 53° E 02:59:44 12° S
Cosmos 2195 Rocket 4.4 02:52:05 23° SSW 02:56:15 76° WNW 03:02:30 10° N
Unknown 3.5 02:56:18 53° W 02:57:13 83° NNW 03:01:23 10° ENE
Cosmos 1733 Rocket 3.1 02:55:23 10° NNW 02:59:45 54° W 03:01:17 35° SSW
Unknown 3.6 02:59:30 49° W 03:00:33 81° NNW 03:04:43 10° ENE
Resurs 1-4 Rocket 3.8 02:57:20 10° NNW 03:00:40 17° NW 03:01:16 17° WNW
Cosmos 1400 Rocket 2.8 03:01:26 50° W 03:01:51 53° WNW 03:05:40 10° N
Unknown 3.6 03:01:04 41° NW 03:01:59 57° N 03:05:28 10° E
Falcon 9 debris 3.6 03:01:20 42° NW 03:02:14 58° N 03:05:41 10° E
Unknown 3.6 03:01:08 47° W 03:02:15 80° NNW 03:06:24 10° ENE
Meteor 1-5 Rocket 4.1 02:58:24 10° NNW 03:03:48 65° W 03:09:22 10° S
Unknown 3.6 03:02:42 45° W 03:03:53 79° NNW 03:08:03 10° ENE
Cosmos 1656 Rocket 3.6 03:01:25 31° SW 03:04:16 75° WNW 03:09:57 10° NNE
S3M 4.2 02:58:26 10° N 03:04:38 74° ENE 03:10:54 10° SSE
ARIANE 5 R/B 3.2 03:00:43 10° N 03:05:20 35° WNW 03:06:32 31° W
Unknown 3.6 03:04:14 44° W 03:05:29 79° NNW 03:09:39 10° ENE
Unknown 3.6 03:06:06 42° W 03:07:26 77° NNW 03:11:37 10° ENE
Cosmos 1655 Rocket 4.4 03:02:00 10° S 03:08:09 65° E 03:14:23 10° NNE
Unknown 3.6 03:07:18 41° W 03:08:41 79° NNW 03:12:50 10° ENE
Cosmos 1428 Rocket 4.4 03:03:24 12° SSW 03:09:19 80° W 03:15:38 10° N
Aureole 2 Rocket 1.7 03:09:34 70° SE 03:09:43 74° ESE 03:12:22 10° NNE
Unknown 3.6 03:10:08 38° W 03:11:37 74° NNW 03:15:43 10° ENE
Unknown 3.6 03:10:31 38° W 03:12:01 77° NNW 03:16:11 10° ENE
Unknown 3.6 03:12:07 37° W 03:13:42 76° NNW 03:17:51 10° ENE
Cosmos 2227 Rocket 3.3 03:08:56 10° NNW 03:14:26 46° NE 03:19:53 10° SE
Unknown 3.7 03:13:54 35° W 03:15:34 73° NNW 03:19:43 10° ENE
CZ-2C R/B 3.5 03:13:11 10° N 03:16:50 36° WNW 03:17:35 33° W
Unknown 3.6 03:15:18 34° W 03:17:01 75° NNW 03:21:11 10° ENE
Unknown 3.6 03:16:56 33° W 03:18:43 74° NNW 03:22:52 10° ENE
Unknown 3.8 03:17:29 29° WNW 03:19:13 58° N 03:23:01 10° ENE
Cosmos 2219 3.4 03:13:50 10° NNW 03:19:35 74° ENE 03:25:14 10° SE
Cosmos 1346 Rocket 2.9 03:17:13 10° NNW 03:21:16 57° W 03:25:16 10° S
Cosmos 44 Rocket 3.8 03:17:42 15° SSW 03:21:46 57° SE 03:26:36 10° NE
ADEOS 3.5 03:16:44 10° NNE 03:21:59 85° WNW 03:27:13 10° SSW
Unknown 3.7 03:20:05 30° W 03:22:00 72° NNW 03:26:10 10° ENE
Cosmos 2369 Rocket 3.2 03:19:57 23° W 03:22:28 32° NW 03:27:33 10° NNE
Unknown 3.7 03:21:41 29° W 03:23:41 72° NNW 03:27:50 10° ENE
Cosmos 2297 Rocket 2.9 03:19:14 10° NNW 03:24:49 56° NE 03:30:22 10° SE
Unknown 3.7 03:23:17 28° W 03:25:20 71° NNW 03:29:30 10° ENE
Cosmos 1092 Rocket 4.4 03:22:26 22° SW 03:25:54 40° WNW 03:31:43 10° N
Cosmos 1500 3.5 03:22:33 10° NNW 03:26:07 41° W 03:28:49 16° SSW
Cosmos 1536 2.8 03:23:00 10° NNW 03:26:55 57° W 03:30:49 10° S
ATLAS 3B R/B 3.0 03:22:54 22° W 03:27:00 50° NW 03:33:25 10° NE
Unknown 3.7 03:24:54 27° W 03:27:02 70° NNW 03:31:11 10° ENE
Unknown 3.8 03:27:45 24° WNW 03:29:58 59° N 03:33:49 10° ENE
Unknown 3.7 03:28:05 26° W 03:30:21 69° NNW 03:34:31 10° ENE
Unknown 3.8 03:29:57 24° W 03:32:19 66° N 03:36:28 10° ENE
Unknown 3.4 03:30:55 21° WNW 03:33:08 66° NNE 03:36:40 10° E
Cosmos 44 3.8 03:30:33 23° WSW 03:33:14 44° NW 03:37:46 10° NNE
NOSS 3-2 (C) 4.3 03:29:11 19° W 03:33:20 41° NNW 03:39:58 10° NE
Unknown 3.8 03:31:30 23° W 03:33:56 66° N 03:38:05 10° ENE
Unknown 3.8 03:31:33 24° W 03:33:58 67° N 03:38:07 10° ENE
Unknown 3.8 03:32:34 20° WNW 03:34:58 58° N 03:38:40 10° E
Cosmos 1782 Rocket 3.5 03:31:34 10° N 03:35:59 88° E 03:40:23 10° S
Unknown 3.8 03:34:27 22° W 03:37:00 67° N 03:41:08 10° ENE
Unknown 3.8 03:37:40 21° W 03:40:21 66° N 03:44:29 10° ENE
H-2A R/B 2.2 03:37:03 10° NNE 03:40:53 74° WNW 03:44:43 10° SSW
Unknown 3.2 03:38:40 18° WNW 03:41:06 74° NNE 03:44:33 10° ESE
Unknown 3.8 03:39:15 20° W 03:42:00 65° N 03:46:08 10° ENE
Iridium 4 Rocket 4.0 03:41:10 20° WSW 03:43:02 27° WNW 03:46:38 10° NNW
Unknown 3.8 03:40:51 19° W 03:43:40 65° N 03:47:49 10° ENE
Cosmos 2266 Rocket 4.1 03:37:43 10° S 03:43:47 77° E 03:49:49 10° NNE
Unknown 3.8 03:42:28 19° W 03:45:22 65° N 03:49:31 10° ENE
Cosmos 773 Rocket 4.1 03:42:54 13° SW 03:47:21 55° WNW 03:52:27 10° NNE
FALCON 9 DEB 3.3 03:45:54 15° WNW 03:48:44 76° NNE 03:52:16 10° ESE
Unknown 3.4 03:48:06 23° W 03:49:18 34° SSW 03:51:56 10° SE
USA 267 3.5 03:42:53 10° ESE 03:49:24 71° NNE 03:55:55 10° WNW
Lacrosse 5 2.6 03:46:16 12° WNW 03:50:23 32° SW 03:54:50 10° SSE
CZ-2C R/B 2.7 03:46:19 10° NNE 03:51:14 75° ESE 03:56:18 10° S
Cosmos 1703 Rocket 3.5 03:47:27 10° SSW 03:51:52 71° WNW 03:56:17 10° N
Unknown 3.9 03:48:50 16° W 03:52:01 63° N 03:56:09 10° ENE
MSX 3.8 03:47:43 10° NNE 03:53:30 79° WNW 03:59:13 10° SSW
Unknown 3.9 03:50:27 16° W 03:53:41 63° N 03:57:49 10° ENE
Unknown 3.1 03:52:31 16° WNW 03:54:55 55° SSW 03:58:05 10° SE
Unknown 3.9 03:52:01 15° W 03:55:20 63° N 03:59:28 10° ENE
Unknown 3.9 03:53:37 15° W 03:57:00 62° N 04:01:08 10° ENE
Cosmos 1943 Rocket 3.8 03:54:11 11° W 03:57:48 20° NW 04:01:51 10° N
Unknown 3.9 03:55:14 14° W 03:58:41 62° N 04:02:49 10° ENE
Cosmos 1743 2.7 03:55:35 10° N 03:59:31 89° E 04:03:25 10° S
CZ-4B R/B 3.3 03:55:24 10° NNE 03:59:58 80° ESE 04:04:27 10° S
Cosmos 1812 3.8 03:57:55 13° SW 04:00:39 27° WNW 04:04:00 10° N
Sich 1 Rocket 3.6 03:56:40 10° NNW 04:01:06 65° W 04:05:33 10° S
EP 1 4.4 03:59:38 16° WSW 04:01:34 53° NW 04:04:08 10° NE
Unknown 3.9 03:58:26 13° W 04:02:03 62° N 04:06:10 10° ENE
Starlink (trailer) 3.9 04:00:02 13° W 04:03:42 61° N 04:07:50 10° ENE
IDEFIX/ARIANE 42P 3.0 03:58:44 10° N 04:03:44 45° WNW 04:08:43 10° SW
Unknown 3.9 04:01:38 12° W 04:05:23 61° N 04:09:31 10° ENE
Meteor 1-27 Rocket 4.3 04:00:29 10° SW 04:05:58 41° WNW 04:11:23 10° N
CENTAUR R/B 3.5 04:00:18 12° W 04:06:00 40° NNW 04:13:07 10° NE
Unknown 3.9 04:03:13 12° W 04:07:02 61° N 04:11:09 10° ENE
Okean 1-7 3.1 04:03:39 10° SSW 04:08:00 59° WNW 04:12:22 10° N
Cosmos 2221 Rocket 3.9 04:04:30 10° S 04:08:54 71° E 04:13:20 10° NNE
ATLAS 5 CENTAUR R/B 4.0 04:07:39 10° NW 04:11:53 24° NNE 04:16:36 10° ENE
Meteor PRIRODA 3.9 04:08:27 10° NNE 04:12:10 73° ESE 04:15:51 10° S
Unknown 4.0 04:09:38 10° W 04:13:44 60° N 04:17:51 10° E
Unknown 4.0 04:11:18 10° W 04:15:25 60° N 04:19:32 10° E
Unknown 4.0 04:11:38 10° W 04:15:45 60° N 04:19:51 10° E
Cosmos 1680 Rocket 3.6 04:13:23 10° SSW 04:18:38 83° ESE 04:23:54 10° NNE
Unknown 4.0 04:14:35 10° W 04:18:43 60° N 04:22:50 10° E
Cosmos 923 Rocket 4.0 04:14:48 10° SSW 04:20:09 77° WNW 04:25:31 10° NNE
Unknown 4.0 04:16:24 10° W 04:20:31 60° N 04:24:38 10° E
Cosmos 1666 3.7 04:17:22 10° NNW 04:20:32 26° W 04:23:42 10° SSW
Cosmos 2315 Rocket 4.0 04:14:24 10° NNW 04:20:34 68° W 04:26:43 10° S
Cosmos 1340 4.4 04:18:52 10° NW 04:20:52 14° W 04:22:51 10° WSW
SeaSat 1 2.6 04:16:04 10° NNE 04:20:57 60° NW 04:25:48 10° SW
ADEOS II 4.1 04:19:29 10° NNW 04:21:03 11° NW 04:22:36 10° WNW
Unknown 4.0 04:17:11 10° W 04:21:18 60° N 04:25:25 10° E
Unknown 4.0 04:19:41 10° W 04:23:49 60° N 04:27:56 10° E
ALOS 4.0 04:19:39 10° NNE 04:24:03 38° E 04:28:24 10° SSE
Cosmos 1315 Rocket 4.3 04:21:09 10° WSW 04:24:20 21° WNW 04:27:32 10° NNW
BREEZE-M DEB (TANK) 2.2 04:20:37 10° WSW 04:24:21 70° S 04:26:37 10° E
Cosmos 1818 3.9 04:19:15 10° NW 04:24:45 72° NE 04:30:10 10° SE
BREEZE-M DEB (TANK) 3.2 04:17:01 10° W 04:24:51 48° SSW 04:27:44 10° ESE
Unknown 4.0 04:21:17 10° W 04:25:24 60° N 04:29:31 10° E
Unknown 4.0 04:21:45 10° W 04:25:51 60° N 04:29:59 10° E
Unknown 4.0 04:24:31 10° W 04:28:37 60° N 04:32:44 10° E
CZ-4B R/B 3.8 04:25:07 10° N 04:28:42 50° WNW 04:32:13 10° SSW
COSMO-SKYMED 1 2.5 04:26:04 10° S 04:30:24 73° WSW 04:34:46 10° NNW
Cosmos 2056 Rocket 3.5 04:27:11 10° NNW 04:32:29 74° WSW 04:37:39 10° SSE
